[[{"header":{"parameterUnit":"m.s-1","parameterCategory":1,"la1":30.2991,"la2":30.254,"lo1":-89.0895,"lo2":-89.0444,"dy":0.0017,"dx":0.0017,"nx":28,"ny":28,"refTime":"2025-08-08T21:00:00:Z","depth":0,"parameterNumber":2,"parameterNumberName":"U-component_of_WINDS"},"data":[0,0,0,0,0,0,0,0,0,0,0,0,0,0,0,0,0,0,0,0,0,0,0,0,0,0,0,0,0,0,0,0,0,0,0,0,0,0,0,0,0,0,0,0,0,0,0,0,0,0,0,0,0,0,0,0,0,0,-2.3619,-2.3619,0,-2.3583,-2.3583,-2.3582,-2.3451,-2.3448,-2.3445,-2.3442,-2.341,-2.3411,-2.3413,0,0,0,0,0,0,0,0,0,0,0,0,0,-2.358,-2.3582,-2.3619,-2.3619,-2.3618,-2.3583,-2.3583,-2.3582,-2.3452,-2.3448,-2.3444,-2.3441,-2.3409,-2.3411,-2.3413,0,0,0,0,0,0,0,0,0,0,0,0,0,-2.3576,-2.3582,-2.3619,-2.3549,-2.3542,-2.3583,-2.3583,-2.3582,-2.3452,-2.3448,-2.3443,-2.3439,-2.3408,-2.3411,-2.3414,-2.3521,0,0,-2.3423,-2.3424,0,0,0,0,0,0,0,0,-2.3577,-2.3578,-2.356,-2.3554,-2.3546,-2.3517,-2.3557,-2.3562,-2.3454,-2.3487,-2.3442,-2.3437,-2.3449,-2.3448,-2.3452,-2.352,-2.3518,-2.3423,-2.3425,-2.3426,-2.3427,0,0,0,0,0,0,0,-2.3577,-2.3579,-2.3605,-2.356,-2.3552,-2.3521,-2.3515,-2.3557,-2.3494,-2.3483,-2.3474,-2.3471,-2.3445,-2.3449,-2.345,-2.3518,-2.3423,-2.3425,-2.3427,-2.3428,-2.3674,-2.3679,0,0,0,0,0,0,-2.3587,-2.358,-2.3606,-2.3604,-2.3551,-2.3525,-2.3519,-2.3531,-2.3493,-2.3483,-2.3475,-2.3465,-2.3446,-2.3447,-2.3448,-2.3571,-2.3426,-2.3428,-2.343,-2.3669,-2.3675,-2.368,0,0,0,0,0,0,-2.3586,-2.359,-2.3608,-2.3589,-2.3589,-2.353,-2.3545,-2.3533,-2.3537,-2.3486,-2.3475,-2.3491,-2.3443,-2.3444,-2.3504,-2.3569,-2.343,-2.3432,-2.3664,-2.3671,-2.3678,-2.382,0,0,0,0,0,0,-2.3586,-2.3591,-2.363,-2.3591,-2.3591,-2.3663,-2.3549,-2.3535,-2.3542,-2.3528,-2.3498,-2.3489,-2.3439,-2.3501,-2.3507,-2.357,-2.3435,-2.3658,-2.3667,-2.3676,-2.3809,-2.3831,-2.3849,0,0,0,0,0,-2.3585,-2.3672,-2.3632,-2.3636,-2.3638,-2.3667,-2.3667,-2.3607,-2.3547,-2.3587,-2.3555,-2.349,-2.3561,-2.3508,-2.3514,-2.3579,-2.3653,-2.3664,-2.3675,-2.38,-2.3826,-2.3849,0,0,0,0,0,0,-2.372,-2.3665,-2.3621,-2.3698,-2.3688,-2.3645,-2.3692,-2.3637,-2.3645,-2.3632,-2.3559,-2.3554,-2.3624,-2.3608,-2.3549,-2.3682,-2.3596,-2.3609,-2.3689,-2.3714,-2.3734,-2.3736,-2.3437,0,0,0,0,0,-2.3759,-2.3786,-2.3737,-2.381,-2.3807,-2.3751,-2.3761,-2.3716,-2.3704,-2.3699,-2.3671,-2.3663,-2.3683,-2.3698,-2.3714,-2.3807,-2.3799,-2.3855,-2.3875,-2.3892,-2.3903,-2.3952,-2.3976,-2.3716,-2.3716,-2.3716,0,0,-2.384,-2.3813,-2.3834,-2.3836,-2.3823,-2.3854,-2.3748,-2.3785,-2.3808,-2.3705,-2.3759,-2.374,-2.3725,-2.3802,-2.3835,-2.3791,-2.3974,-2.3906,-2.392,-2.3922,-2.3966,-2.399,-2.4012,-2.3723,-2.3722,-2.3721,0,0,-2.4001,-2.3984,-2.4042,-2.4032,-2.4013,-2.3976,-2.399,-2.3956,-2.3938,-2.3991,-2.3915,-2.3943,-2.3979,-2.3972,-2.3974,-2.4137,-2.4077,-2.4144,-2.425,-2.4298,-2.4318,-2.4336,-2.4394,-2.4416,-2.4156,-2.4156,-2.4157,0,-2.4103,-2.4145,-2.408,-2.4121,-2.4125,-2.4034,-2.4093,-2.4087,-2.4076,-2.4081,-2.4032,-2.4077,-2.4061,-2.4135,-2.4175,-2.4179,-2.4195,-2.4146,-2.432,-2.4338,-2.4353,-2.4408,-2.443,-2.4164,-2.4164,-2.4163,-2.4162,0,-2.4272,-2.4303,-2.4352,-2.4342,-2.4352,-2.4403,-2.4347,-2.4365,-2.432,-2.4289,-2.4346,-2.4324,-2.4334,-2.4349,-2.4306,-2.4418,-2.4392,-2.4333,-2.4245,-2.4387,-2.4437,-2.4458,-2.4176,-2.4173,-2.4171,-2.4169,0,0,-2.4515,-2.447,-2.4489,-2.4484,-2.4458,-2.4481,-2.4529,-2.4538,-2.4555,-2.4552,-2.4591,-2.4625,-2.4571,-2.4573,-2.4529,-2.4572,-2.4702,-2.4508,-2.4506,-2.4544,-2.4825,-2.4868,-2.4893,-2.4664,-2.4668,-2.4671,-2.4826,0,-2.4668,-2.4744,-2.4688,-2.4776,-2.4804,-2.4719,-2.4761,-2.4751,-2.4724,-2.4745,-2.4716,-2.4741,-2.4668,-2.4669,-2.4707,-2.4678,-2.4757,-2.4666,-2.47,-2.4702,-2.4704,-2.4919,-2.4965,-2.5112,-2.4845,-2.4848,-2.4851,0,-2.4855,-2.4859,-2.4949,-2.4918,-2.4928,-2.4967,-2.4971,-2.4992,-2.4981,-2.4958,-2.4962,-2.4907,-2.4954,-2.487,-2.4935,-2.4874,-2.4885,-2.4874,-2.4878,-2.4877,-2.4784,-2.4924,-2.5158,-2.518,-2.4881,-2.4878,-2.4876,0,-2.5023,-2.5051,-2.5108,-2.5106,-2.5073,-2.5102,-2.509,-2.5073,-2.5083,-2.5088,-2.5094,-2.5105,-2.5112,-2.5123,-2.5074,-2.5017,-2.5145,-2.5057,-2.5129,-2.513,-2.5158,-2.5156,-2.5396,-2.5168,-2.5168,-2.5167,-2.5167,0,-2.5198,-2.5256,-2.5183,-2.5218,-2.5281,-2.5218,-2.5283,-2.5262,-2.5249,-2.528,-2.5209,-2.524,-2.5174,-2.52,-2.5163,-2.5222,-2.5226,-2.521,-2.5199,-2.5215,-2.5217,-2.522,-2.5208,-2.5173,-2.5172,-2.517,-2.5169,0,-2.5394,-2.5347,-2.5404,-2.5368,-2.5361,-2.5409,-2.5379,-2.5411,-2.5381,-2.5421,-2.5427,-2.5379,-2.5406,-2.5359,-2.5379,-2.5354,-2.5437,-2.5411,-2.5441,-2.5433,-2.5507,-2.55,-2.5755,-2.5786,-2.554,-2.5542,-2.5544,0,-2.5508,-2.5551,-2.552,-2.5535,-2.5526,-2.5552,-2.5561,-2.5502,-2.5515,-2.5506,-2.554,-2.556,-2.5573,-2.5619,-2.5588,-2.5604,-2.5577,-2.5665,-2.5579,-2.5594,-2.5577,-2.5575,-2.5579,-2.5683,-2.5686,-2.5688,-2.569,0,-2.5716,-2.5691,-2.5706,-2.5715,-2.5728,-2.5732,-2.5731,-2.5748,-2.5686,-2.5705,-2.573,-2.574,-2.5761,-2.5783,-2.5792,-2.5781,-2.5726,-2.5718,-2.5735,-2.5752,-2.5767,-2.5759,-2.5488,-2.5712,-2.571,-2.5708,-2.5707,-2.5706,-2.5874,-2.5908,-2.5891,-2.5912,-2.5905,-2.5906,-2.5935,-2.5908,-2.5928,-2.5939,-2.5904,-2.5938,-2.5928,-2.5933,-2.5929,-2.5956,-2.5917,-2.5943,-2.5949,-2.5956,-2.5967,-2.5764,-2.5958,-2.5957,-2.5957,-2.5956,-2.5956,0,-2.6077,-2.6062,-2.6082,-2.6082,-2.6099,-2.6046,-2.6043,-2.6061,-2.6091,-2.6085,-2.61,-2.613,-2.6151,-2.6122,-2.6139,-2.6166,-2.6142,-2.6173,-2.6169,-2.6168,-2.6001,-2.5984,-2.6192,-2.6192,-2.6192,-2.6192,-2.6192,-2.6192,-2.6184,-2.6239,-2.6213,-2.6266,-2.6251,-2.6283,-2.6286,-2.6288,-2.6283,-2.6319,-2.6336,-2.6317,-2.6302,-2.6318,-2.6336,-2.6327,-2.6336,-2.6376,-2.6359,-2.6203,-2.618,-2.6158,-2.6141,-2.6379,-2.6379,-2.6523,-2.6524,-2.6525]},{"header":{"parameterUnit":"m.s-1","parameterCategory":1,"la1":30.2991,"la2":30.254,"lo1":-89.0895,"lo2":-89.0444,"dy":0.0017,"dx":0.0017,"nx":28,"ny":28,"refTime":"2025-08-08T21:00:00:Z","depth":0,"parameterNumber":3,"parameterNumberName":"V-component_of_WINDS"},"data":[0,0,0,0,0,0,0,0,0,0,0,0,0,0,0,0,0,0,0,0,0,0,0,0,0,0,0,0,0,0,0,0,0,0,0,0,0,0,0,0,0,0,0,0,0,0,0,0,0,0,0,0,0,0,0,0,0,0,0.9534,0.9534,0,0.9603,0.9603,0.9604,0.9638,0.9638,0.9638,0.9638,0.9708,0.9709,0.9711,0,0,0,0,0,0,0,0,0,0,0,0,0,0.943,0.9431,0.9534,0.9535,0.9535,0.9602,0.9603,0.9604,0.9638,0.9638,0.9638,0.9638,0.9707,0.9709,0.9711,0,0,0,0,0,0,0,0,0,0,0,0,0,0.9484,0.9432,0.9534,0.956,0.9563,0.9602,0.9603,0.9605,0.9638,0.9638,0.9638,0.9638,0.9706,0.9709,0.9712,0.9729,0,0,0.972,0.9721,0,0,0,0,0,0,0,0,0.9481,0.9488,0.9556,0.9559,0.9562,0.9612,0.9592,0.9646,0.9638,0.961,0.9638,0.9638,0.9676,0.9681,0.9694,0.9732,0.9735,0.972,0.9722,0.9723,0.9724,0,0,0,0,0,0,0,0.9477,0.9485,0.9561,0.9556,0.956,0.9568,0.9576,0.9603,0.9642,0.9612,0.9615,0.9623,0.9677,0.9691,0.9696,0.9736,0.972,0.9723,0.9724,0.9725,0.979,0.979,0,0,0,0,0,0,0.9469,0.9482,0.9559,0.9563,0.9521,0.957,0.9579,0.9596,0.9642,0.9649,0.9622,0.9624,0.9686,0.9692,0.9698,0.9721,0.9723,0.9726,0.9727,0.979,0.979,0.979,0,0,0,0,0,0,0.9467,0.9476,0.9556,0.9523,0.9534,0.9572,0.9591,0.9597,0.9611,0.9649,0.9656,0.9629,0.9686,0.9694,0.9721,0.9723,0.9727,0.973,0.979,0.979,0.979,0.9766,0,0,0,0,0,0,0.9464,0.9475,0.9482,0.9523,0.9536,0.9578,0.9591,0.9598,0.9616,0.9618,0.9658,0.9664,0.9687,0.9716,0.9723,0.9727,0.9732,0.979,0.979,0.979,0.9766,0.9765,0.9764,0,0,0,0,0,0.946,0.9473,0.9482,0.9492,0.9546,0.9578,0.9585,0.9611,0.9616,0.9623,0.9648,0.9663,0.9722,0.9719,0.9727,0.9732,0.979,0.979,0.979,0.9767,0.9765,0.9764,0,0,0,0,0,0,0.9431,0.9479,0.949,0.9516,0.9543,0.9584,0.9594,0.9609,0.9634,0.9636,0.9667,0.9676,0.9699,0.9718,0.9714,0.975,0.9757,0.9759,0.9737,0.9735,0.9734,0.9729,0.9734,0,0,0,0,0,0.9428,0.945,0.949,0.951,0.9522,0.9556,0.9571,0.9589,0.9617,0.9629,0.9655,0.9682,0.9706,0.9722,0.9747,0.9769,0.9778,0.9776,0.9775,0.9773,0.9775,0.9787,0.9787,0.9791,0.9791,0.9791,0,0,0.9421,0.945,0.9462,0.9505,0.9527,0.9549,0.9565,0.9588,0.9604,0.9632,0.9658,0.9679,0.971,0.9735,0.9747,0.9751,0.9775,0.9774,0.9772,0.9774,0.9787,0.9787,0.9786,0.9791,0.9791,0.9791,0,0,0.9421,0.9445,0.9463,0.9485,0.9519,0.9541,0.9545,0.9584,0.9598,0.9625,0.9646,0.9666,0.9707,0.9729,0.9745,0.9751,0.9766,0.9758,0.9751,0.9763,0.9762,0.9762,0.9764,0.9764,0.9759,0.9759,0.9759,0,0.9408,0.9443,0.9471,0.9492,0.951,0.9535,0.9554,0.9574,0.9614,0.9625,0.963,0.9682,0.9705,0.9734,0.9736,0.9748,0.9754,0.9754,0.976,0.976,0.9761,0.9763,0.9763,0.9758,0.9758,0.9758,0.9758,0,0.9425,0.9449,0.946,0.9498,0.9516,0.9536,0.9566,0.9581,0.9597,0.9618,0.9645,0.9673,0.9704,0.9712,0.9728,0.9743,0.9745,0.9754,0.9762,0.9759,0.9761,0.9762,0.9756,0.9757,0.9757,0.9758,0,0,0.941,0.9462,0.9465,0.9482,0.9521,0.954,0.956,0.959,0.9602,0.9628,0.9646,0.968,0.9689,0.9707,0.9725,0.9736,0.9737,0.9744,0.9745,0.9741,0.9755,0.9748,0.9748,0.9747,0.9748,0.9748,0.9752,0,0.9414,0.9453,0.9477,0.9506,0.9527,0.9551,0.9568,0.9594,0.9613,0.9634,0.9656,0.9679,0.9689,0.97,0.9712,0.9735,0.9741,0.9735,0.9763,0.9764,0.9755,0.9749,0.9742,0.9745,0.9753,0.9754,0.9754,0,0.9425,0.9451,0.9481,0.9516,0.9526,0.9541,0.957,0.959,0.9618,0.9632,0.9652,0.967,0.9692,0.9697,0.9727,0.9723,0.9735,0.9748,0.9749,0.9753,0.9759,0.9753,0.9747,0.9747,0.9755,0.9755,0.9755,0,0.941,0.9452,0.9475,0.9489,0.9531,0.9541,0.9559,0.9587,0.9603,0.9628,0.9639,0.9666,0.968,0.97,0.9725,0.9727,0.9752,0.976,0.9763,0.9763,0.9768,0.9767,0.9764,0.9776,0.9776,0.9776,0.9776,0,0.9413,0.943,0.9469,0.9483,0.9503,0.9531,0.9549,0.9569,0.9594,0.9612,0.9634,0.965,0.9682,0.9702,0.9721,0.9742,0.9749,0.976,0.9765,0.9758,0.9757,0.9767,0.9767,0.9776,0.9776,0.9776,0.9776,0,0.94,0.9427,0.9453,0.949,0.95,0.9513,0.9544,0.9558,0.9579,0.9601,0.9608,0.964,0.9664,0.9691,0.9724,0.9737,0.9757,0.9764,0.9747,0.975,0.9752,0.9751,0.9755,0.9757,0.9768,0.9768,0.9768,0,0.94,0.9414,0.9452,0.9466,0.9483,0.9504,0.9521,0.9548,0.9564,0.9596,0.9607,0.9633,0.9655,0.9693,0.9718,0.9744,0.9752,0.9751,0.9756,0.9748,0.9751,0.975,0.9751,0.975,0.9749,0.9749,0.9749,0,0.9397,0.9409,0.9432,0.9459,0.9477,0.95,0.9523,0.9533,0.9565,0.9581,0.9606,0.9623,0.9657,0.9682,0.9711,0.9728,0.9744,0.9747,0.9749,0.9743,0.9732,0.9737,0.9744,0.9747,0.9747,0.9747,0.9748,0.9748,0.9391,0.9404,0.9432,0.9456,0.9476,0.9497,0.9512,0.9534,0.9556,0.9585,0.96,0.9625,0.9652,0.9691,0.9708,0.9727,0.9732,0.9735,0.9736,0.9737,0.9734,0.9729,0.9733,0.9733,0.9733,0.9733,0.9733,0,0.9389,0.9408,0.943,0.9461,0.948,0.9492,0.9518,0.9533,0.9555,0.9579,0.96,0.9628,0.9652,0.9679,0.9705,0.9715,0.9723,0.9721,0.9721,0.9724,0.9729,0.9724,0.9715,0.9715,0.9715,0.9715,0.9715,0.9715,0.939,0.9412,0.9427,0.9459,0.9479,0.9503,0.9517,0.9536,0.9555,0.9585,0.9605,0.9623,0.9648,0.9675,0.9698,0.9705,0.9714,0.971,0.9719,0.9723,0.9724,0.9726,0.9722,0.9711,0.9711,0.9713,0.9713,0.9713]}]]